Time,TemperatureF,DewpointF,PressureIn,WindDirection,WindDirectionDegrees,WindSpeedMPH,WindSpeedGustMPH,Humidity,HourlyPrecipIn,Conditions,Clouds,dailyrainin,SoftwareType,DateUTC
2013-10-30 00:01:00,40.3,37.2,-100.00,North,8,0.0,0.0,89,0.01,,,0.02,meteohub,2013-10-30 04:01:00,
2013-10-30 00:02:00,40.1,37.0,-100.00,North,8,0.0,0.0,89,0.01,,,0.02,meteohub,2013-10-30 04:02:00,
2013-10-30 00:07:00,40.1,37.0,-100.00,North,8,0.0,0.0,89,0.01,,,0.00,meteohub,2013-10-30 04:07:00,
2013-10-30 00:12:00,40.1,37.4,-100.00,North,8,0.0,0.0,90,0.01,,,0.00,meteohub,2013-10-30 04:12:00,
2013-10-30 00:17:00,39.9,37.2,-100.00,NNE,12,0.0,0.0,90,0.01,,,0.00,meteohub,2013-10-30 04:17:00,
2013-10-30 00:22:00,39.9,37.2,-100.00,NNE,12,0.0,0.0,90,0.01,,,0.00,meteohub,2013-10-30 04:22:00,
2013-10-30 00:27:00,39.9,37.2,-100.00,NNE,12,0.0,0.0,90,0.01,,,0.00,meteohub,2013-10-30 04:27:00,
2013-10-30 00:32:00,39.9,37.2,-100.00,East,91,0.0,0.0,90,0.01,,,0.00,meteohub,2013-10-30 04:32:00,
2013-10-30 00:37:00,39.9,37.2,-100.00,East,94,0.0,2.0,90,0.01,,,0.00,meteohub,2013-10-30 04:37:00,
2013-10-30 00:42:00,39.9,37.6,-100.00,East,91,0.0,2.0,91,0.01,,,0.00,meteohub,2013-10-30 04:42:00,
2013-10-30 00:47:00,39.9,37.6,-100.00,East,89,0.0,2.0,91,0.01,,,0.00,meteohub,2013-10-30 04:47:00,
2013-10-30 00:52:00,39.9,37.6,-100.00,East,98,0.0,1.0,91,0.01,,,0.00,meteohub,2013-10-30 04:52:00,
2013-10-30 00:57:00,39.9,37.6,-100.00,East,96,0.0,1.0,91,0.00,,,0.00,meteohub,2013-10-30 04:57:00,
2013-10-30 01:02:00,39.9,37.6,-100.00,East,96,0.0,0.0,91,0.00,,,0.00,meteohub,2013-10-30 05:02:00,
2013-10-30 01:07:00,39.9,37.6,-100.00,East,97,0.0,0.0,91,0.00,,,0.00,meteohub,2013-10-30 05:07:00,
2013-10-30 01:12:00,39.9,37.6,-100.00,East,97,0.0,0.0,91,0.00,,,0.00,meteohub,2013-10-30 05:12:00,
2013-10-30 01:17:00,39.9,37.6,-100.00,East,96,0.0,0.0,91,0.00,,,0.00,meteohub,2013-10-30 05:17:00,
2013-10-30 01:22:00,39.9,37.6,-100.00,East,97,0.0,0.0,91,0.00,,,0.00,meteohub,2013-10-30 05:22:00,
2013-10-30 01:27:00,40.1,37.8,-100.00,East,97,0.0,0.0,91,0.00,,,0.00,meteohub,2013-10-30 05:27:00,
2013-10-30 01:32:00,40.1,37.8,-100.00,East,97,0.0,0.0,91,0.00,,,0.00,meteohub,2013-10-30 05:32:00,
2013-10-30 01:37:00,40.1,37.8,-100.00,East,97,0.0,0.0,91,0.00,,,0.00,meteohub,2013-10-30 05:37:00,
2013-10-30 01:42:00,40.3,37.9,-100.00,East,96,0.0,0.0,91,0.00,,,0.00,meteohub,2013-10-30 05:42:00,
2013-10-30 01:47:00,40.3,37.9,-100.00,East,98,0.0,0.0,91,0.00,,,0.00,meteohub,2013-10-30 05:47:00,
2013-10-30 01:52:00,40.3,37.9,-100.00,East,98,0.0,0.0,91,0.00,,,0.00,meteohub,2013-10-30 05:52:00,
2013-10-30 01:57:00,40.3,37.9,-100.00,East,96,0.0,0.0,91,0.00,,,0.00,meteohub,2013-10-30 05:57:00,
2013-10-30 02:02:00,40.3,37.9,-100.00,East,96,0.0,0.0,91,0.00,,,0.00,meteohub,2013-10-30 06:02:00,
2013-10-30 02:07:00,40.3,37.9,-100.00,East,97,0.0,0.0,91,0.00,,,0.00,meteohub,2013-10-30 06:07:00,
2013-10-30 02:12:00,40.3,37.9,-100.00,East,97,0.0,0.0,91,0.00,,,0.00,meteohub,2013-10-30 06:12:00,
2013-10-30 02:17:00,40.3,37.9,-100.00,East,97,0.0,0.0,91,0.00,,,0.00,meteohub,2013-10-30 06:17:00,
2013-10-30 02:22:00,39.9,37.6,-100.00,East,97,0.0,0.0,91,0.00,,,0.00,meteohub,2013-10-30 06:22:00,
2013-10-30 02:27:00,39.9,37.6,-100.00,East,97,0.0,0.0,91,0.00,,,0.00,meteohub,2013-10-30 06:27:00,
2013-10-30 02:32:00,39.7,37.4,-100.00,East,97,0.0,0.0,91,0.00,,,0.00,meteohub,2013-10-30 06:32:00,
2013-10-30 02:37:00,39.6,37.2,-100.00,East,97,0.0,0.0,91,0.00,,,0.00,meteohub,2013-10-30 06:37:00,
2013-10-30 02:43:00,39.4,37.2,-100.00,East,97,0.0,0.0,92,0.00,,,0.00,meteohub,2013-10-30 06:43:00,
2013-10-30 02:48:00,39.6,37.4,-100.00,East,97,0.0,0.0,92,0.00,,,0.00,meteohub,2013-10-30 06:48:00,
2013-10-30 02:53:00,39.6,37.4,-100.00,East,97,0.0,0.0,92,0.00,,,0.00,meteohub,2013-10-30 06:53:00,
2013-10-30 02:58:00,39.6,37.4,-100.00,East,97,0.0,0.0,92,0.00,,,0.00,meteohub,2013-10-30 06:58:00,
2013-10-30 03:03:00,39.6,37.4,-100.00,East,97,0.0,0.0,92,0.00,,,0.00,meteohub,2013-10-30 07:03:00,
2013-10-30 03:08:00,39.6,37.4,-100.00,East,97,0.0,0.0,92,0.00,,,0.00,meteohub,2013-10-30 07:08:00,
2013-10-30 03:13:00,39.6,37.4,-100.00,East,97,0.0,0.0,92,0.00,,,0.00,meteohub,2013-10-30 07:13:00,
2013-10-30 03:18:00,39.6,37.8,-100.00,East,97,0.0,0.0,93,0.00,,,0.00,meteohub,2013-10-30 07:18:00,
2013-10-30 03:23:00,39.6,37.8,-100.00,East,97,0.0,0.0,93,0.00,,,0.00,meteohub,2013-10-30 07:23:00,
2013-10-30 03:28:00,39.6,37.8,-100.00,East,97,0.0,0.0,93,0.00,,,0.00,meteohub,2013-10-30 07:28:00,
2013-10-30 03:33:00,39.7,37.9,-100.00,East,97,0.0,0.0,93,0.00,,,0.00,meteohub,2013-10-30 07:33:00,
2013-10-30 03:38:00,39.7,37.9,-100.00,East,97,0.0,0.0,93,0.00,,,0.00,meteohub,2013-10-30 07:38:00,
2013-10-30 03:43:00,39.7,37.9,-100.00,East,97,0.0,0.0,93,0.00,,,0.00,meteohub,2013-10-30 07:43:00,
2013-10-30 03:48:00,39.7,37.9,-100.00,East,97,0.0,0.0,93,0.00,,,0.00,meteohub,2013-10-30 07:48:00,
2013-10-30 03:53:00,39.7,37.9,-100.00,East,97,0.0,0.0,93,0.00,,,0.00,meteohub,2013-10-30 07:53:00,
2013-10-30 03:58:00,39.9,38.1,-100.00,East,97,0.0,0.0,93,0.00,,,0.00,meteohub,2013-10-30 07:58:00,
2013-10-30 04:03:00,39.9,38.1,-100.00,East,96,0.0,0.0,93,0.00,,,0.00,meteohub,2013-10-30 08:03:00,
2013-10-30 04:08:00,39.7,37.9,-100.00,East,97,0.0,0.0,93,0.00,,,0.00,meteohub,2013-10-30 08:08:00,
2013-10-30 04:13:00,39.9,38.1,-100.00,East,97,0.0,0.0,93,0.00,,,0.00,meteohub,2013-10-30 08:13:00,
2013-10-30 04:18:00,39.7,37.9,-100.00,ESE,111,0.0,0.0,93,0.00,,,0.00,meteohub,2013-10-30 08:18:00,
2013-10-30 04:23:00,39.7,37.9,-100.00,ESE,111,0.0,0.0,93,0.00,,,0.00,meteohub,2013-10-30 08:23:00,
2013-10-30 04:28:00,39.7,37.9,-100.00,ESE,111,0.0,0.0,93,0.00,,,0.00,meteohub,2013-10-30 08:28:00,
2013-10-30 04:33:00,39.7,37.9,-100.00,ESE,111,0.0,0.0,93,0.00,,,0.00,meteohub,2013-10-30 08:33:00,
2013-10-30 04:38:00,39.7,37.9,-100.00,ESE,110,0.0,0.0,93,0.00,,,0.00,meteohub,2013-10-30 08:38:00,
2013-10-30 04:43:00,39.6,37.8,-100.00,ESE,110,0.0,0.0,93,0.00,,,0.00,meteohub,2013-10-30 08:43:00,
2013-10-30 04:48:00,39.6,37.8,-100.00,ESE,110,0.0,0.0,93,0.00,,,0.00,meteohub,2013-10-30 08:48:00,
2013-10-30 04:53:00,39.6,37.8,-100.00,ESE,110,0.0,0.0,93,0.00,,,0.00,meteohub,2013-10-30 08:53:00,
2013-10-30 04:58:00,39.6,37.8,-100.00,ESE,110,0.0,0.0,93,0.00,,,0.00,meteohub,2013-10-30 08:58:00,
2013-10-30 05:03:00,39.4,37.6,-100.00,ESE,110,0.0,0.0,93,0.00,,,0.00,meteohub,2013-10-30 09:03:00,
2013-10-30 05:08:00,39.4,37.6,-100.00,ESE,110,0.0,0.0,93,0.00,,,0.00,meteohub,2013-10-30 09:08:00,
2013-10-30 05:13:00,39.4,37.6,-100.00,ESE,110,0.0,0.0,93,0.00,,,0.00,meteohub,2013-10-30 09:13:00,
2013-10-30 05:18:00,39.4,37.6,-100.00,ESE,110,0.0,0.0,93,0.00,,,0.00,meteohub,2013-10-30 09:18:00,
2013-10-30 05:24:00,39.2,37.4,-100.00,ESE,110,0.0,0.0,93,0.00,,,0.00,meteohub,2013-10-30 09:24:00,
2013-10-30 05:28:00,39.2,37.4,-100.00,ESE,110,0.0,0.0,93,0.00,,,0.00,meteohub,2013-10-30 09:28:00,
2013-10-30 05:34:00,39.2,37.4,-100.00,ESE,110,0.0,0.0,93,0.00,,,0.00,meteohub,2013-10-30 09:34:00,
2013-10-30 05:39:00,39.2,37.4,-100.00,ESE,110,0.0,0.0,93,0.00,,,0.00,meteohub,2013-10-30 09:39:00,
2013-10-30 05:44:00,39.2,37.4,-100.00,ESE,111,0.0,0.0,93,0.00,,,0.00,meteohub,2013-10-30 09:44:00,
2013-10-30 05:49:00,39.0,37.2,-100.00,ESE,108,0.0,0.0,93,0.00,,,0.00,meteohub,2013-10-30 09:49:00,
2013-10-30 05:54:00,39.0,37.2,-100.00,ESE,106,0.0,0.0,93,0.00,,,0.00,meteohub,2013-10-30 09:54:00,
2013-10-30 05:59:00,39.0,37.2,-100.00,ESE,103,0.0,0.0,93,0.00,,,0.00,meteohub,2013-10-30 09:59:00,
2013-10-30 06:04:00,39.0,37.2,-100.00,ESE,123,0.0,0.0,93,0.00,,,0.00,meteohub,2013-10-30 10:04:00,
2013-10-30 06:09:00,39.0,37.2,-100.00,ESE,116,1.0,1.0,93,0.00,,,0.00,meteohub,2013-10-30 10:09:00,
2013-10-30 06:14:00,39.0,37.2,-100.00,ESE,120,0.0,1.0,93,0.00,,,0.00,meteohub,2013-10-30 10:14:00,
2013-10-30 06:19:00,39.4,37.6,-100.00,East,82,0.0,2.0,93,0.00,,,0.00,meteohub,2013-10-30 10:19:00,
2013-10-30 06:24:00,39.4,37.6,-100.00,SE,124,0.0,2.0,93,0.00,,,0.00,meteohub,2013-10-30 10:24:00,
2013-10-30 06:29:00,39.4,37.6,-100.00,ENE,62,0.0,2.0,93,0.00,,,0.00,meteohub,2013-10-30 10:29:00,
2013-10-30 06:34:00,39.4,37.6,-100.00,ENE,63,0.0,2.0,93,0.00,,,0.00,meteohub,2013-10-30 10:34:00,
2013-10-30 06:39:00,39.4,37.6,-100.00,ENE,63,0.0,2.0,93,0.00,,,0.00,meteohub,2013-10-30 10:39:00,
2013-10-30 06:44:00,39.2,37.4,-100.00,ESE,120,0.0,1.0,93,0.00,,,0.00,meteohub,2013-10-30 10:44:00,
2013-10-30 06:49:00,39.0,37.2,-100.00,ESE,118,0.0,1.0,93,0.00,,,0.00,meteohub,2013-10-30 10:49:00,
2013-10-30 06:54:00,39.0,37.2,-100.00,ESE,113,0.0,2.0,93,0.00,,,0.00,meteohub,2013-10-30 10:54:00,
2013-10-30 06:59:00,39.0,37.2,-100.00,SE,140,0.0,2.0,93,0.00,,,0.00,meteohub,2013-10-30 10:59:00,
2013-10-30 07:04:00,38.8,37.0,-100.00,SE,137,0.0,1.0,93,0.00,,,0.00,meteohub,2013-10-30 11:04:00,
2013-10-30 07:09:00,38.8,37.0,-100.00,NW,310,0.0,2.0,93,0.00,,,0.00,meteohub,2013-10-30 11:09:00,
2013-10-30 07:14:00,38.7,36.9,-100.00,NW,310,0.0,2.0,93,0.00,,,0.00,meteohub,2013-10-30 11:14:00,
2013-10-30 07:19:00,38.5,36.7,-100.00,ESE,103,1.0,2.0,93,0.00,,,0.00,meteohub,2013-10-30 11:19:00,
2013-10-30 07:24:00,38.7,36.9,-100.00,ESE,107,0.0,1.0,93,0.00,,,0.00,meteohub,2013-10-30 11:24:00,
2013-10-30 07:29:00,38.8,37.0,-100.00,SE,146,0.0,1.0,93,0.00,,,0.00,meteohub,2013-10-30 11:29:00,
2013-10-30 07:34:00,38.8,37.0,-100.00,South,186,0.0,2.0,93,0.00,,,0.00,meteohub,2013-10-30 11:34:00,
2013-10-30 07:39:00,39.0,37.2,-100.00,SE,132,1.0,2.0,93,0.00,,,0.00,meteohub,2013-10-30 11:39:00,
2013-10-30 07:44:00,38.8,36.7,-100.00,SE,134,0.0,1.0,92,0.00,,,0.00,meteohub,2013-10-30 11:44:00,
2013-10-30 07:49:00,38.8,36.7,-100.00,ESE,107,0.0,1.0,92,0.00,,,0.00,meteohub,2013-10-30 11:49:00,
2013-10-30 07:54:00,38.8,36.7,-100.00,ESE,110,1.0,1.0,92,0.00,,,0.00,meteohub,2013-10-30 11:54:00,
2013-10-30 07:59:00,38.7,36.5,-100.00,SSE,147,0.0,1.0,92,0.00,,,0.00,meteohub,2013-10-30 11:59:00,
2013-10-30 08:04:00,38.7,36.5,-100.00,ENE,74,0.0,1.0,92,0.00,,,0.00,meteohub,2013-10-30 12:04:00,
2013-10-30 08:09:00,38.7,36.9,-100.00,ESE,105,0.0,2.0,93,0.00,,,0.00,meteohub,2013-10-30 12:09:00,
2013-10-30 08:14:00,38.8,37.0,-100.00,East,90,1.0,2.0,93,0.00,,,0.00,meteohub,2013-10-30 12:14:00,
2013-10-30 08:19:00,39.0,37.2,-100.00,ESE,120,0.0,2.0,93,0.00,,,0.00,meteohub,2013-10-30 12:19:00,
2013-10-30 08:24:00,39.2,37.0,-100.00,East,79,1.0,2.0,92,0.00,,,0.00,meteohub,2013-10-30 12:24:00,
2013-10-30 08:29:00,39.4,37.2,-100.00,ESE,110,0.0,2.0,92,0.00,,,0.00,meteohub,2013-10-30 12:29:00,
2013-10-30 08:34:00,39.6,37.4,-100.00,ENE,70,0.0,2.0,92,0.00,,,0.00,meteohub,2013-10-30 12:34:00,
2013-10-30 08:39:00,39.6,37.2,-100.00,ENE,60,2.0,2.0,91,0.00,,,0.00,meteohub,2013-10-30 12:39:00,
2013-10-30 08:44:00,39.7,37.4,-100.00,ENE,77,0.0,2.0,91,0.00,,,0.00,meteohub,2013-10-30 12:44:00,
2013-10-30 08:49:00,39.9,37.6,-100.00,ENE,72,0.0,3.0,91,0.00,,,0.00,meteohub,2013-10-30 12:49:00,
2013-10-30 08:54:00,40.3,37.9,-100.00,NE,54,1.0,3.0,91,0.00,,,0.00,meteohub,2013-10-30 12:54:00,
2013-10-30 08:59:00,40.6,37.9,-100.00,ESE,108,0.0,2.0,90,0.00,,,0.00,meteohub,2013-10-30 12:59:00,
2013-10-30 09:05:00,40.8,38.1,-100.00,ENE,76,0.0,2.0,90,0.00,,,0.00,meteohub,2013-10-30 13:05:00,
2013-10-30 09:10:00,41.2,38.5,-100.00,East,79,0.0,2.0,90,0.00,,,0.00,meteohub,2013-10-30 13:10:00,
2013-10-30 09:15:00,41.4,38.3,-100.00,ENE,75,0.0,2.0,89,0.00,,,0.00,meteohub,2013-10-30 13:15:00,
2013-10-30 09:20:00,41.7,38.7,-100.00,East,82,0.0,2.0,89,0.00,,,0.00,meteohub,2013-10-30 13:20:00,
2013-10-30 09:25:00,42.3,38.7,-100.00,East,98,0.0,2.0,87,0.00,,,0.00,meteohub,2013-10-30 13:25:00,
2013-10-30 09:30:00,42.6,39.0,-100.00,East,84,2.0,2.0,87,0.00,,,0.00,meteohub,2013-10-30 13:30:00,
2013-10-30 09:35:00,43.2,39.2,-100.00,ESE,110,0.0,2.0,86,0.00,,,0.00,meteohub,2013-10-30 13:35:00,
2013-10-30 09:40:00,43.9,39.7,-100.00,East,82,0.0,2.0,85,0.01,,,0.01,meteohub,2013-10-30 13:40:00,
2013-10-30 09:45:00,44.4,39.9,-100.00,SE,145,0.0,2.0,84,0.01,,,0.01,meteohub,2013-10-30 13:45:00,
2013-10-30 09:50:00,45.1,40.6,-100.00,SE,132,0.0,2.0,84,0.01,,,0.01,meteohub,2013-10-30 13:50:00,
2013-10-30 09:55:00,46.2,41.7,-100.00,SE,132,1.0,2.0,84,0.01,,,0.01,meteohub,2013-10-30 13:55:00,
2013-10-30 10:00:00,47.1,41.9,-100.00,SE,131,0.0,2.0,82,0.01,,,0.01,meteohub,2013-10-30 14:00:00,
2013-10-30 10:05:00,47.7,41.7,-100.00,SE,131,0.0,1.0,80,0.01,,,0.01,meteohub,2013-10-30 14:05:00,
2013-10-30 10:10:00,46.9,41.2,-100.00,SE,125,0.0,1.0,80,0.01,,,0.01,meteohub,2013-10-30 14:10:00,
2013-10-30 10:15:00,46.8,41.0,-100.00,SE,127,0.0,1.0,80,0.01,,,0.01,meteohub,2013-10-30 14:15:00,
2013-10-30 10:20:00,46.9,41.2,-100.00,ESE,122,0.0,1.0,80,0.01,,,0.01,meteohub,2013-10-30 14:20:00,
2013-10-30 10:25:00,46.9,41.2,-100.00,NE,49,0.0,1.0,80,0.01,,,0.01,meteohub,2013-10-30 14:25:00,
2013-10-30 10:30:00,47.1,41.5,-100.00,NE,49,1.0,1.0,81,0.01,,,0.01,meteohub,2013-10-30 14:30:00,
2013-10-30 10:35:00,47.5,41.5,-100.00,NE,49,0.0,1.0,80,0.00,,,0.01,meteohub,2013-10-30 14:35:00,
2013-10-30 10:40:00,47.7,41.5,-100.00,NE,48,0.0,1.0,79,0.00,,,0.01,meteohub,2013-10-30 14:40:00,
2013-10-30 10:45:00,47.7,41.5,-100.00,NE,48,0.0,1.0,79,0.00,,,0.01,meteohub,2013-10-30 14:45:00,
2013-10-30 10:50:00,47.8,41.7,-100.00,NE,47,0.0,1.0,79,0.00,,,0.01,meteohub,2013-10-30 14:50:00,
2013-10-30 10:55:00,47.8,42.3,-100.00,NNW,328,0.0,1.0,81,0.00,,,0.01,meteohub,2013-10-30 14:55:00,
2013-10-30 11:00:00,48.2,42.3,-100.00,NNE,12,0.0,1.0,80,0.00,,,0.01,meteohub,2013-10-30 15:00:00,
2013-10-30 11:05:00,48.4,42.4,-100.00,North,359,0.0,1.0,80,0.00,,,0.01,meteohub,2013-10-30 15:05:00,
2013-10-30 11:10:00,48.4,42.4,-100.00,NE,56,1.0,1.0,80,0.00,,,0.01,meteohub,2013-10-30 15:10:00,
2013-10-30 11:15:00,48.4,42.8,-100.00,ENE,61,0.0,2.0,81,0.00,,,0.01,meteohub,2013-10-30 15:15:00,
2013-10-30 11:20:00,48.7,43.2,-100.00,NW,321,0.0,2.0,81,0.00,,,0.01,meteohub,2013-10-30 15:20:00,
2013-10-30 11:25:00,48.9,43.3,-100.00,NNE,16,0.0,2.0,81,0.00,,,0.01,meteohub,2013-10-30 15:25:00,
2013-10-30 11:30:00,49.3,43.7,-100.00,NE,54,0.0,3.0,81,0.00,,,0.01,meteohub,2013-10-30 15:30:00,
2013-10-30 11:36:00,50.2,44.2,-100.00,East,89,1.0,3.0,80,0.00,,,0.01,meteohub,2013-10-30 15:36:00,
2013-10-30 11:41:00,50.7,44.8,-100.00,ESE,103,1.0,3.0,80,0.00,,,0.01,meteohub,2013-10-30 15:41:00,
2013-10-30 11:46:00,51.3,43.5,-100.00,East,91,1.0,3.0,75,0.00,,,0.01,meteohub,2013-10-30 15:46:00,
2013-10-30 11:51:00,51.6,44.2,-100.00,ENE,74,1.0,2.0,76,0.00,,,0.01,meteohub,2013-10-30 15:51:00,
2013-10-30 11:56:00,52.2,43.7,-100.00,South,184,0.0,2.0,73,0.00,,,0.01,meteohub,2013-10-30 15:56:00,
2013-10-30 12:01:00,52.3,44.2,-100.00,SW,220,0.0,2.0,74,0.00,,,0.01,meteohub,2013-10-30 16:01:00,
2013-10-30 12:06:00,52.9,44.1,-100.00,ESE,115,0.0,2.0,72,0.00,,,0.01,meteohub,2013-10-30 16:06:00,
2013-10-30 12:11:00,53.2,44.1,-100.00,ESE,110,0.0,1.0,71,0.00,,,0.01,meteohub,2013-10-30 16:11:00,
2013-10-30 12:16:00,53.8,44.2,-100.00,NNE,30,1.0,1.0,70,0.00,,,0.01,meteohub,2013-10-30 16:16:00,
2013-10-30 12:21:00,54.1,43.9,-100.00,ESE,110,0.0,2.0,68,0.00,,,0.01,meteohub,2013-10-30 16:21:00,
2013-10-30 12:26:00,54.1,43.3,-100.00,ESE,110,1.0,2.0,67,0.00,,,0.01,meteohub,2013-10-30 16:26:00,
2013-10-30 12:31:00,54.3,43.5,-100.00,NE,53,0.0,2.0,67,0.00,,,0.01,meteohub,2013-10-30 16:31:00,
2013-10-30 12:36:00,55.2,44.8,-100.00,ESE,113,1.0,3.0,68,0.00,,,0.01,meteohub,2013-10-30 16:36:00,
2013-10-30 12:41:00,56.3,45.1,-100.00,East,100,0.0,3.0,66,0.00,,,0.01,meteohub,2013-10-30 16:41:00,
2013-10-30 12:46:00,56.5,44.4,-100.00,South,172,0.0,3.0,64,0.00,,,0.01,meteohub,2013-10-30 16:46:00,
2013-10-30 12:51:00,56.5,43.7,-100.00,NE,56,1.0,3.0,62,0.00,,,0.01,meteohub,2013-10-30 16:51:00,
2013-10-30 12:56:00,55.8,43.0,-100.00,ENE,65,0.0,3.0,62,0.00,,,0.01,meteohub,2013-10-30 16:56:00,
2013-10-30 13:01:00,55.9,43.9,-100.00,WNW,302,1.0,3.0,64,0.00,,,0.01,meteohub,2013-10-30 17:01:00,
2013-10-30 13:06:00,56.1,44.6,-100.00,East,101,0.0,2.0,65,0.00,,,0.01,meteohub,2013-10-30 17:06:00,
2013-10-30 13:11:00,56.7,44.6,-100.00,NW,326,1.0,3.0,64,0.00,,,0.01,meteohub,2013-10-30 17:11:00,
2013-10-30 13:16:00,56.5,44.1,-100.00,WNW,301,1.0,3.0,63,0.00,,,0.01,meteohub,2013-10-30 17:16:00,
2013-10-30 13:21:00,56.5,44.4,-100.00,East,81,0.0,3.0,64,0.00,,,0.01,meteohub,2013-10-30 17:21:00,
2013-10-30 13:26:00,56.7,44.2,-100.00,NNE,25,1.0,3.0,63,0.00,,,0.01,meteohub,2013-10-30 17:26:00,
2013-10-30 13:31:00,57.0,44.6,-100.00,NW,310,1.0,3.0,63,0.00,,,0.01,meteohub,2013-10-30 17:31:00,
2013-10-30 13:36:00,56.8,44.8,-100.00,NW,307,0.0,3.0,64,0.00,,,0.01,meteohub,2013-10-30 17:36:00,
2013-10-30 13:41:00,57.0,44.1,-100.00,WNW,300,2.0,3.0,62,0.00,,,0.01,meteohub,2013-10-30 17:41:00,
2013-10-30 13:46:00,57.0,45.0,-100.00,NW,316,1.0,2.0,64,0.00,,,0.01,meteohub,2013-10-30 17:46:00,
2013-10-30 13:51:00,57.2,45.1,-100.00,NW,320,0.0,7.0,64,0.00,,,0.01,meteohub,2013-10-30 17:51:00,
2013-10-30 13:56:00,57.6,45.5,-100.00,NW,304,1.0,7.0,64,0.00,,,0.01,meteohub,2013-10-30 17:56:00,
2013-10-30 14:02:00,57.6,45.5,-100.00,NNW,338,2.0,7.0,64,0.00,,,0.01,meteohub,2013-10-30 18:02:00,
2013-10-30 14:07:00,56.8,44.4,-100.00,NW,326,0.0,3.0,63,0.00,,,0.01,meteohub,2013-10-30 18:07:00,
2013-10-30 14:12:00,56.5,44.4,-100.00,NNW,331,2.0,4.0,64,0.00,,,0.01,meteohub,2013-10-30 18:12:00,
2013-10-30 14:17:00,56.1,43.7,-100.00,NW,321,6.0,7.0,63,0.00,,,0.01,meteohub,2013-10-30 18:17:00,
2013-10-30 14:22:00,55.8,43.7,-100.00,WNW,290,1.0,7.0,64,0.00,,,0.01,meteohub,2013-10-30 18:22:00,
2013-10-30 14:27:00,55.6,45.1,-100.00,NNW,338,2.0,7.0,68,0.00,,,0.01,meteohub,2013-10-30 18:27:00,
2013-10-30 14:32:00,55.2,45.1,-100.00,NW,315,1.0,6.0,69,0.00,,,0.01,meteohub,2013-10-30 18:32:00,
2013-10-30 14:37:00,54.9,45.7,-100.00,North,1,0.0,5.0,71,0.00,,,0.01,meteohub,2013-10-30 18:37:00,
2013-10-30 14:42:00,54.9,45.3,-100.00,NNE,27,2.0,5.0,70,0.00,,,0.01,meteohub,2013-10-30 18:42:00,
2013-10-30 14:47:00,54.7,45.5,-100.00,NNE,13,1.0,5.0,71,0.00,,,0.01,meteohub,2013-10-30 18:47:00,
2013-10-30 14:52:00,54.3,45.5,-100.00,NW,314,1.0,4.0,72,0.00,,,0.01,meteohub,2013-10-30 18:52:00,
2013-10-30 14:57:00,54.0,45.9,-100.00,NNW,327,0.0,4.0,74,0.00,,,0.01,meteohub,2013-10-30 18:57:00,
2013-10-30 15:02:00,53.8,45.7,-100.00,North,357,1.0,4.0,74,0.00,,,0.01,meteohub,2013-10-30 19:02:00,
2013-10-30 15:07:00,53.2,45.1,-100.00,NW,311,1.0,4.0,74,0.00,,,0.01,meteohub,2013-10-30 19:07:00,
2013-10-30 15:12:00,53.2,45.5,-100.00,NW,309,1.0,4.0,75,0.00,,,0.01,meteohub,2013-10-30 19:12:00,
2013-10-30 15:17:00,53.1,44.6,-100.00,NNW,332,0.0,4.0,73,0.00,,,0.01,meteohub,2013-10-30 19:17:00,
2013-10-30 15:22:00,53.2,44.8,-100.00,NNW,345,1.0,3.0,73,0.00,,,0.01,meteohub,2013-10-30 19:22:00,
2013-10-30 15:27:00,53.2,44.8,-100.00,ENE,68,0.0,3.0,73,0.00,,,0.01,meteohub,2013-10-30 19:27:00,
2013-10-30 15:32:00,53.2,44.8,-100.00,NNE,32,1.0,3.0,73,0.00,,,0.01,meteohub,2013-10-30 19:32:00,
2013-10-30 15:37:00,53.2,44.8,-100.00,North,0,0.0,3.0,73,0.00,,,0.01,meteohub,2013-10-30 19:37:00,
2013-10-30 15:42:00,53.2,44.8,-100.00,NE,56,1.0,3.0,73,0.00,,,0.01,meteohub,2013-10-30 19:42:00,
2013-10-30 15:47:00,53.2,44.8,-100.00,NW,324,1.0,3.0,73,0.00,,,0.01,meteohub,2013-10-30 19:47:00,
2013-10-30 15:52:00,53.1,45.0,-100.00,NW,320,0.0,2.0,74,0.00,,,0.01,meteohub,2013-10-30 19:52:00,
2013-10-30 15:57:00,53.1,45.0,-100.00,NW,313,0.0,3.0,74,0.00,,,0.01,meteohub,2013-10-30 19:57:00,
2013-10-30 16:02:00,53.1,44.6,-100.00,NW,315,1.0,3.0,73,0.00,,,0.01,meteohub,2013-10-30 20:02:00,
2013-10-30 16:07:00,53.1,44.2,-100.00,NE,36,2.0,3.0,72,0.00,,,0.01,meteohub,2013-10-30 20:07:00,
2013-10-30 16:12:00,53.1,45.0,-100.00,NW,304,0.0,3.0,74,0.00,,,0.01,meteohub,2013-10-30 20:12:00,
2013-10-30 16:17:00,52.9,44.4,-100.00,NW,313,0.0,3.0,73,0.00,,,0.01,meteohub,2013-10-30 20:17:00,
2013-10-30 16:22:00,52.9,44.4,-100.00,NNW,347,0.0,3.0,73,0.00,,,0.01,meteohub,2013-10-30 20:22:00,
2013-10-30 16:27:00,52.9,44.4,-100.00,NW,311,1.0,2.0,73,0.00,,,0.01,meteohub,2013-10-30 20:27:00,
2013-10-30 16:32:00,52.9,44.8,-100.00,WNW,291,0.0,2.0,74,0.00,,,0.01,meteohub,2013-10-30 20:32:00,
2013-10-30 16:37:00,52.9,44.8,-100.00,NE,44,1.0,2.0,74,0.00,,,0.01,meteohub,2013-10-30 20:37:00,
2013-10-30 16:42:00,52.7,44.6,-100.00,NW,304,0.0,2.0,74,0.00,,,0.01,meteohub,2013-10-30 20:42:00,
2013-10-30 16:47:00,52.9,44.8,-100.00,NW,311,0.0,2.0,74,0.00,,,0.01,meteohub,2013-10-30 20:47:00,
2013-10-30 16:52:00,53.4,45.7,-100.00,WNW,297,1.0,3.0,75,0.00,,,0.01,meteohub,2013-10-30 20:52:00,
2013-10-30 16:58:00,54.3,46.6,-100.00,NW,309,0.0,3.0,75,0.00,,,0.01,meteohub,2013-10-30 20:58:00,
2013-10-30 17:03:00,55.0,46.6,-100.00,NW,304,1.0,3.0,73,0.00,,,0.01,meteohub,2013-10-30 21:03:00,
2013-10-30 17:08:00,55.2,45.7,-100.00,NW,313,0.0,2.0,70,0.00,,,0.01,meteohub,2013-10-30 21:08:00,
2013-10-30 17:13:00,54.7,44.8,-100.00,NNW,340,0.0,2.0,69,0.00,,,0.01,meteohub,2013-10-30 21:13:00,
2013-10-30 17:18:00,54.7,45.1,-100.00,West,279,0.0,2.0,70,0.00,,,0.01,meteohub,2013-10-30 21:18:00,
2013-10-30 17:23:00,54.5,44.6,-100.00,NW,307,0.0,2.0,69,0.00,,,0.01,meteohub,2013-10-30 21:23:00,
2013-10-30 17:28:00,54.1,44.2,-100.00,North,6,1.0,2.0,69,0.00,,,0.01,meteohub,2013-10-30 21:28:00,
2013-10-30 17:33:00,53.8,44.6,-100.00,West,262,0.0,2.0,71,0.00,,,0.01,meteohub,2013-10-30 21:33:00,
2013-10-30 17:38:00,53.8,44.6,-100.00,West,262,0.0,2.0,71,0.00,,,0.01,meteohub,2013-10-30 21:38:00,
2013-10-30 17:43:00,53.2,44.1,-100.00,NNE,26,0.0,2.0,71,0.00,,,0.01,meteohub,2013-10-30 21:43:00,
2013-10-30 17:48:00,52.7,43.9,-100.00,NNE,27,0.0,2.0,72,0.00,,,0.01,meteohub,2013-10-30 21:48:00,
2013-10-30 17:53:00,52.3,43.9,-100.00,NNW,332,0.0,1.0,73,0.00,,,0.01,meteohub,2013-10-30 21:53:00,
2013-10-30 17:58:00,52.0,43.5,-100.00,WNW,299,1.0,1.0,73,0.00,,,0.01,meteohub,2013-10-30 21:58:00,
2013-10-30 18:03:00,51.1,43.2,-100.00,WNW,303,0.0,1.0,74,0.00,,,0.01,meteohub,2013-10-30 22:03:00,
2013-10-30 18:08:00,50.2,43.0,-100.00,WNW,303,0.0,2.0,76,0.00,,,0.01,meteohub,2013-10-30 22:08:00,
2013-10-30 18:13:00,49.3,42.4,-100.00,WNW,303,0.0,2.0,77,0.00,,,0.01,meteohub,2013-10-30 22:13:00,
2013-10-30 18:18:00,48.4,41.9,-100.00,WNW,303,0.0,0.0,78,0.00,,,0.01,meteohub,2013-10-30 22:18:00,
2013-10-30 18:23:00,47.5,41.4,-100.00,WNW,303,0.0,0.0,79,0.00,,,0.01,meteohub,2013-10-30 22:23:00,
2013-10-30 18:28:00,46.4,40.8,-100.00,WNW,303,0.0,0.0,81,0.00,,,0.01,meteohub,2013-10-30 22:28:00,
2013-10-30 18:33:00,45.7,40.8,-100.00,WNW,303,0.0,0.0,83,0.00,,,0.01,meteohub,2013-10-30 22:33:00,
2013-10-30 18:38:00,45.0,40.5,-100.00,WNW,303,0.0,0.0,84,0.00,,,0.01,meteohub,2013-10-30 22:38:00,
2013-10-30 18:43:00,44.2,40.1,-100.00,WNW,303,0.0,0.0,85,0.00,,,0.01,meteohub,2013-10-30 22:43:00,
2013-10-30 18:48:00,43.5,39.6,-100.00,WNW,303,0.0,0.0,86,0.00,,,0.01,meteohub,2013-10-30 22:48:00,
2013-10-30 18:53:00,43.2,39.6,-100.00,WNW,303,0.0,0.0,87,0.00,,,0.01,meteohub,2013-10-30 22:53:00,
2013-10-30 18:58:00,43.0,39.7,-100.00,WNW,303,0.0,0.0,88,0.00,,,0.01,meteohub,2013-10-30 22:58:00,
2013-10-30 19:03:00,42.8,40.1,-100.00,WNW,303,0.0,0.0,90,0.00,,,0.01,meteohub,2013-10-30 23:03:00,
2013-10-30 19:08:00,42.8,40.1,-100.00,WNW,303,0.0,0.0,90,0.00,,,0.01,meteohub,2013-10-30 23:08:00,
2013-10-30 19:13:00,42.8,40.1,-100.00,WNW,303,0.0,0.0,90,0.00,,,0.01,meteohub,2013-10-30 23:13:00,
2013-10-30 19:18:00,42.6,39.9,-100.00,WNW,303,0.0,0.0,90,0.00,,,0.01,meteohub,2013-10-30 23:18:00,
2013-10-30 19:23:00,42.4,39.7,-100.00,WNW,303,0.0,0.0,90,0.00,,,0.01,meteohub,2013-10-30 23:23:00,
2013-10-30 19:28:00,42.3,39.6,-100.00,WNW,303,0.0,0.0,90,0.00,,,0.01,meteohub,2013-10-30 23:28:00,
2013-10-30 19:34:00,41.9,39.2,-100.00,WNW,302,0.0,0.0,90,0.00,,,0.01,meteohub,2013-10-30 23:34:00,
2013-10-30 19:38:00,41.5,38.8,-100.00,WNW,302,0.0,0.0,90,0.00,,,0.01,meteohub,2013-10-30 23:38:00,
2013-10-30 19:43:00,41.2,38.5,-100.00,WNW,302,0.0,0.0,90,0.00,,,0.01,meteohub,2013-10-30 23:43:00,
2013-10-30 19:49:00,40.6,38.3,-100.00,WNW,302,0.0,0.0,91,0.00,,,0.01,meteohub,2013-10-30 23:49:00,
2013-10-30 19:54:00,40.6,38.5,-100.00,WNW,303,0.0,0.0,92,0.00,,,0.01,meteohub,2013-10-30 23:54:00,
2013-10-30 19:59:00,40.6,38.5,-100.00,WNW,303,0.0,1.0,92,0.00,,,0.01,meteohub,2013-10-30 23:59:00,
2013-10-30 20:04:00,40.8,38.7,-100.00,NNE,13,0.0,1.0,92,0.00,,,0.01,meteohub,2013-10-31 00:04:00,
2013-10-30 20:09:00,40.8,39.0,-100.00,NNE,13,0.0,1.0,93,0.00,,,0.01,meteohub,2013-10-31 00:09:00,
2013-10-30 20:14:00,41.0,39.2,-100.00,ESE,119,1.0,1.0,93,0.00,,,0.01,meteohub,2013-10-31 00:14:00,
2013-10-30 20:19:00,41.7,40.1,-100.00,ESE,109,0.0,2.0,94,0.00,,,0.01,meteohub,2013-10-31 00:19:00,
2013-10-30 20:24:00,42.3,40.5,-100.00,ESE,109,0.0,2.0,93,0.00,,,0.01,meteohub,2013-10-31 00:24:00,
2013-10-30 20:29:00,42.4,40.3,-100.00,ESE,108,0.0,2.0,92,0.00,,,0.01,meteohub,2013-10-31 00:29:00,
2013-10-30 20:34:00,42.4,40.3,-100.00,ESE,108,0.0,0.0,92,0.00,,,0.01,meteohub,2013-10-31 00:34:00,
2013-10-30 20:39:00,42.3,39.7,-100.00,ESE,108,0.0,0.0,91,0.00,,,0.01,meteohub,2013-10-31 00:39:00,
2013-10-30 20:44:00,42.3,40.1,-100.00,ESE,108,0.0,0.0,92,0.00,,,0.01,meteohub,2013-10-31 00:44:00,
2013-10-30 20:49:00,42.1,39.6,-100.00,ESE,109,0.0,1.0,91,0.00,,,0.01,meteohub,2013-10-31 00:49:00,
2013-10-30 20:54:00,41.7,39.2,-100.00,ESE,109,0.0,1.0,91,0.00,,,0.01,meteohub,2013-10-31 00:54:00,
2013-10-30 20:59:00,41.7,39.6,-100.00,ESE,109,0.0,1.0,92,0.00,,,0.01,meteohub,2013-10-31 00:59:00,
2013-10-30 21:04:00,41.7,39.6,-100.00,ESE,108,0.0,1.0,92,0.00,,,0.01,meteohub,2013-10-31 01:04:00,
2013-10-30 21:09:00,41.4,39.0,-100.00,ESE,108,0.0,1.0,91,0.00,,,0.01,meteohub,2013-10-31 01:09:00,
2013-10-30 21:14:00,41.2,38.8,-100.00,ESE,108,0.0,0.0,91,0.00,,,0.01,meteohub,2013-10-31 01:14:00,
2013-10-30 21:19:00,40.6,38.3,-100.00,ESE,108,0.0,0.0,91,0.00,,,0.01,meteohub,2013-10-31 01:19:00,
2013-10-30 21:24:00,40.5,38.1,-100.00,ESE,108,0.0,0.0,91,0.00,,,0.01,meteohub,2013-10-31 01:24:00,
2013-10-30 21:29:00,40.1,37.8,-100.00,ESE,108,0.0,0.0,91,0.00,,,0.01,meteohub,2013-10-31 01:29:00,
2013-10-30 21:34:00,39.7,37.4,-100.00,ESE,108,0.0,0.0,91,0.00,,,0.01,meteohub,2013-10-31 01:34:00,
2013-10-30 21:39:00,39.4,37.0,-100.00,ESE,108,0.0,0.0,91,0.00,,,0.01,meteohub,2013-10-31 01:39:00,
2013-10-30 21:44:00,39.4,37.2,-100.00,ESE,108,0.0,0.0,92,0.00,,,0.01,meteohub,2013-10-31 01:44:00,
2013-10-30 21:49:00,39.0,36.9,-100.00,ESE,108,0.0,0.0,92,0.00,,,0.01,meteohub,2013-10-31 01:49:00,
2013-10-30 21:54:00,38.7,36.3,-100.00,ESE,108,0.0,0.0,91,0.00,,,0.01,meteohub,2013-10-31 01:54:00,
2013-10-30 21:59:00,38.1,36.0,-100.00,ESE,108,0.0,0.0,92,0.00,,,0.01,meteohub,2013-10-31 01:59:00,
2013-10-30 22:04:00,38.1,36.0,-100.00,ESE,108,0.0,0.0,92,0.00,,,0.01,meteohub,2013-10-31 02:04:00,
2013-10-30 22:10:00,38.5,36.7,-100.00,ESE,108,0.0,0.0,93,0.00,,,0.01,meteohub,2013-10-31 02:10:00,
2013-10-30 22:15:00,39.0,37.4,-100.00,ESE,108,0.0,0.0,94,0.00,,,0.01,meteohub,2013-10-31 02:15:00,
2013-10-30 22:20:00,39.0,37.4,-100.00,ESE,108,0.0,0.0,94,0.00,,,0.01,meteohub,2013-10-31 02:20:00,
2013-10-30 22:25:00,39.4,37.8,-100.00,ESE,108,0.0,0.0,94,0.00,,,0.01,meteohub,2013-10-31 02:25:00,
2013-10-30 22:30:00,39.4,37.8,-100.00,ESE,108,0.0,0.0,94,0.00,,,0.01,meteohub,2013-10-31 02:30:00,
2013-10-30 22:35:00,39.4,37.8,-100.00,ESE,108,0.0,0.0,94,0.00,,,0.01,meteohub,2013-10-31 02:35:00,
2013-10-30 22:40:00,39.4,37.8,-100.00,ESE,108,0.0,0.0,94,0.00,,,0.01,meteohub,2013-10-31 02:40:00,
2013-10-30 22:45:00,39.4,37.8,-100.00,ESE,108,0.0,0.0,94,0.00,,,0.01,meteohub,2013-10-31 02:45:00,
2013-10-30 22:50:00,39.6,37.9,-100.00,ESE,108,0.0,0.0,94,0.00,,,0.01,meteohub,2013-10-31 02:50:00,
2013-10-30 22:55:00,39.9,38.7,-100.00,ESE,108,0.0,0.0,95,0.00,,,0.01,meteohub,2013-10-31 02:55:00,
2013-10-30 23:00:00,40.6,39.4,-100.00,ESE,108,0.0,0.0,95,0.00,,,0.01,meteohub,2013-10-31 03:00:00,
2013-10-30 23:05:00,41.5,40.5,-100.00,ESE,108,0.0,0.0,96,0.00,,,0.01,meteohub,2013-10-31 03:05:00,
2013-10-30 23:10:00,41.9,40.6,-100.00,ESE,108,0.0,0.0,95,0.00,,,0.01,meteohub,2013-10-31 03:10:00,
2013-10-30 23:15:00,41.7,40.5,-100.00,ESE,108,0.0,0.0,95,0.00,,,0.01,meteohub,2013-10-31 03:15:00,
2013-10-30 23:20:00,41.4,39.7,-100.00,ESE,108,0.0,0.0,94,0.00,,,0.01,meteohub,2013-10-31 03:20:00,
2013-10-30 23:25:00,40.8,39.2,-100.00,SE,125,0.0,0.0,94,0.00,,,0.01,meteohub,2013-10-31 03:25:00,
2013-10-30 23:30:00,41.2,39.9,-100.00,ESE,122,0.0,0.0,95,0.00,,,0.01,meteohub,2013-10-31 03:30:00,
2013-10-30 23:35:00,41.0,39.7,-100.00,ESE,122,0.0,0.0,95,0.00,,,0.01,meteohub,2013-10-31 03:35:00,
2013-10-30 23:40:00,40.6,39.0,-100.00,ESE,122,0.0,0.0,94,0.00,,,0.01,meteohub,2013-10-31 03:40:00,
2013-10-30 23:45:00,40.5,38.8,-100.00,ESE,122,0.0,0.0,94,0.00,,,0.01,meteohub,2013-10-31 03:45:00,
2013-10-30 23:50:00,40.5,38.8,-100.00,ESE,122,0.0,0.0,94,0.00,,,0.01,meteohub,2013-10-31 03:50:00,
2013-10-30 23:55:00,40.3,38.7,-100.00,ESE,122,0.0,0.0,94,0.00,,,0.01,meteohub,2013-10-31 03:55:00,